Location: Starlight Observatory
(38.4029°N, 85.8936°W)
Time: 18:30:39
(UTC-04:00)

Amateur Radio Satellites - All Passes

Search period start: 25 September 2016 18:00
Search period end: 26 September 2016 18:00
Location: Starlight Observatory, 38.4029°N, 85.8936°W

Satellite Date Start Highest point End Downlink Frequencies (MHz)
Time Altitude Azimuth
AIST 1 25 Sep 18:03:29 18:07:46 70° 265° (W) 18:11:59
YUBILEINY 25 Sep 18:04:08 18:06:47 12° 285° (WNW) 18:09:26 435.215
AO-7 25 Sep 18:04:11 18:10:35 24° 265° (W) 18:17:00 29.400- 29.500
STARS 25 Sep 18:13:50 18:18:12 72° 102° (ESE) 18:22:33 437.465
NOAA 15 25 Sep 18:24:13 18:29:01 36° 69° (ENE) 18:33:50 137.62
MOZHAYETS 4 25 Sep 18:24:55 18:28:49 27° 291° (WNW) 18:32:42
BRITE-PL 25 Sep 18:25:49 18:31:29 75° 76° (ENE) 18:37:09 437.365/2234.400
LilacSat-2 25 Sep 18:29:22 18:32:22 23° 70° (ENE) 18:35:23 437.200
PHONESAT 2.4 25 Sep 18:29:43 18:31:54 19° 211° (SSW) 18:34:05 2401.200-2431.200
GOMX 1 25 Sep 18:29:51 18:34:49 37° 71° (ENE) 18:39:36 467.674
Cubesat XI-IV 25 Sep 18:30:49 18:35:31 33° 68° (ENE) 18:40:14 437.490
CUTE-I 25 Sep 18:31:49 18:36:33 34° 68° (ENE) 18:41:17 437.470
Cosmos 2504 25 Sep 18:40:35 18:44:29 15° 280° (W) 18:48:30 435.465 / 435.565
NOAA 18 25 Sep 18:49:56 18:55:04 42° 69° (ENE) 19:00:11 137.9125
DOVE 4 25 Sep 19:05:12 19:09:48 35° 71° (ENE) 19:14:10 437.250
KKS-1 25 Sep 19:10:53 19:13:10 14° 296° (WNW) 19:15:27 437.445
RS-15 25 Sep 19:15:13 19:20:46 15° 95° (E) 19:26:23 29.354- 29.394
HORYU 2 25 Sep 19:29:08 19:30:42 12° 269° (W) 19:32:15 437.375
CUBESAT XI-V 25 Sep 19:37:13 19:41:29 35° 289° (WNW) 19:45:43 437.345
O/OREOS (USA 219) 25 Sep 19:39:00 19:42:58 29° 257° (WSW) 19:46:53 437.305
CUSAT 1 25 Sep 19:46:56 19:52:07 34° 86° (E) 19:58:24 437.405
STARS 25 Sep 19:53:22 19:53:56 10° 298° (WNW) 19:54:30 437.465
HO-68 25 Sep 19:57:15 20:03:47 40° 65° (ENE) 20:10:19 435.675
CUTE 1.7 + AOD 2 25 Sep 20:02:25 20:05:42 22° 69° (ENE) 20:09:01 437.475
CANX-2 25 Sep 20:02:52 20:06:22 26° 70° (ENE) 20:09:55 2200.000
LilacSat-2 25 Sep 20:03:43 20:06:35 21° 265° (W) 20:09:28 437.200
Cosmos 2499 25 Sep 20:03:51 20:09:34 23° 70° (ENE) 20:15:32 435.465 / 435.565
NOAA 15 25 Sep 20:04:24 20:08:48 26° 264° (W) 20:13:14 137.62
BRITE-PL 25 Sep 20:07:32 20:10:25 14° 271° (W) 20:13:17 437.365/2234.400
GOMX 1 25 Sep 20:08:20 20:12:52 27° 265° (W) 20:17:19 467.674
SEEDS 25 Sep 20:09:10 20:12:05 18° 67° (ENE) 20:15:00 437.485
Cubesat XI-IV 25 Sep 20:11:00 20:15:33 29° 264° (W) 20:20:08 437.490
CUTE-I 25 Sep 20:12:05 20:16:34 28° 264° (W) 20:21:05 437.470
GONETS M04 25 Sep 20:24:50 20:33:01 40° 74° (ENE) 20:41:03
CUBEBUG 2 25 Sep 20:26:42 20:29:09 15° 67° (ENE) 20:31:34 437.445
NOAA 18 25 Sep 20:31:33 20:35:50 23° 265° (W) 20:40:09 137.9125
CINEMA 3 25 Sep 20:36:13 20:40:47 80° 77° (ENE) 20:45:10 145.822/145.860
AAUSAT CUBESAT 2 25 Sep 20:39:03 20:42:11 21° 69° (ENE) 20:45:20 437.432
DOVE 4 25 Sep 20:43:18 20:47:28 25° 265° (W) 20:51:28 437.250
UWE-3 25 Sep 20:49:52 20:52:40 18° 68° (ENE) 20:55:28 435.000/436.395/437.385
DANDE 25 Sep 20:53:11 20:57:35 41° 89° (E) 21:03:21 436.750
STRAND 1 25 Sep 21:14:22 21:19:33 84° 284° (WNW) 21:24:42 437.568
RS-15 25 Sep 21:19:24 21:30:51 74° 115° (ESE) 21:42:56 29.354- 29.394
COMPASS 1 25 Sep 21:19:31 21:23:41 82° 75° (ENE) 21:27:53 437.405
ZACube-1 25 Sep 21:24:15 21:27:44 27° 70° (ENE) 21:31:13 437.345
Oscar 11 25 Sep 21:26:53 21:30:35 29° 70° (ENE) 21:34:19 145.826/435.025
CUSAT 1 25 Sep 21:28:27 21:33:56 38° 289° (WNW) 21:40:41 437.405
CUTE 1.7 + AOD 2 25 Sep 21:37:46 21:41:22 28° 264° (W) 21:45:03 437.475
CANX-2 25 Sep 21:38:45 21:42:09 23° 265° (W) 21:45:36 2200.000
ISS 25 Sep 21:39:52 21:42:54 38° 135° (SE) 21:45:58 145.825
SEEDS 25 Sep 21:43:42 21:47:30 34° 263° (W) 21:51:22 437.485
HO-68 25 Sep 21:44:53 21:51:26 38° 262° (W) 21:58:01 435.675
AO-85 25 Sep 21:50:09 21:54:39 29° 113° (ESE) 21:58:58 145.980
Cosmos 2499 25 Sep 21:55:42 22:03:08 66° 267° (W) 22:11:08 435.465 / 435.565
CUBEBUG 2 25 Sep 22:01:25 22:05:26 41° 261° (W) 22:09:24 437.445
HUMSAT D 25 Sep 22:07:52 22:10:18 16° 66° (ENE) 22:12:45 437.325/437.525
PRISM 25 Sep 22:09:30 22:13:16 33° 98° (E) 22:17:00 437.425
AAUSAT CUBESAT 2 25 Sep 22:13:51 22:17:28 29° 264° (W) 22:21:07 437.432
FUNcube-1 25 Sep 22:19:03 22:23:10 72° 258° (WSW) 22:27:18 145.935
DELFI C3 25 Sep 22:19:50 22:23:37 43° 73° (ENE) 22:27:27 145.870
GONETS M04 25 Sep 22:21:42 22:29:46 42° 273° (W) 22:37:46
UWE-3 25 Sep 22:25:03 22:28:52 34° 262° (W) 22:32:40 435.000/436.395/437.385
DANDE 25 Sep 22:36:46 22:40:44 23° 296° (WNW) 22:45:36 436.750
TIGRISAT 25 Sep 22:49:00 22:50:04 11° 91° (E) 22:51:09 435.000
ZACube-1 25 Sep 23:00:46 23:03:59 22° 265° (W) 23:07:13 437.345
Oscar 11 25 Sep 23:03:22 23:06:42 22° 265° (W) 23:10:04 145.826/435.025
ISS 25 Sep 23:16:45 23:19:29 24° 332° (NNW) 23:22:13 145.825
UNISAT 6 25 Sep 23:26:17 23:30:15 32° 97° (E) 23:34:15 437.425
AO-85 25 Sep 23:30:15 23:35:02 36° 307° (NW) 23:39:33 145.980
RS-15 25 Sep 23:33:48 23:44:25 37° 320° (NW) 23:55:32 29.354- 29.394
HUMSAT D 25 Sep 23:41:47 23:45:35 38° 262° (W) 23:49:25 437.325/437.525
ESTCUBE 1 25 Sep 23:42:38 23:46:35 30° 70° (ENE) 23:50:33 437.505/2401.250
PRISM 25 Sep 23:45:29 23:48:18 18° 293° (WNW) 23:51:07 437.425
M-CUBED/EXP-1 PRIME 25 Sep 23:47:15 23:50:07 18° 64° (ENE) 23:52:51 437.505
VELOX 1 25 Sep 23:53:11 23:56:23 20° 67° (ENE) 23:59:35 145.980
DX 1 25 Sep 23:54:40 23:56:37 13° 63° (ENE) 23:58:33 434.975-435.025
DELFI C3 25 Sep 23:56:57 23:58:40 12° 268° (W) 00:00:25 145.870
JUGNU 25 Sep 23:59:52 00:01:58 12° 180° (S) 00:04:03 437.505
ANTELSAT 26 Sep 00:01:28 00:05:52 81° 102° (ESE) 00:10:22 437.575/2403.000
CUBEBUG 1 26 Sep 00:02:54 00:06:48 31° 70° (ENE) 00:10:42 437.445
TIGRISAT 26 Sep 00:22:46 00:27:05 61° 285° (WNW) 00:31:30 435.000
QB50P2 26 Sep 00:27:15 00:30:21 20° 94° (E) 00:33:26 145.880/145.840
POLYITAN 1 26 Sep 00:29:29 00:32:35 20° 94° (E) 00:35:40 437.675
50 SAT 26 Sep 00:32:12 00:35:40 45° 74° (ENE) 00:39:10 437.505
SO-50 26 Sep 00:42:48 00:46:08 19° 46° (NE) 00:49:23 436.795
AISAT 26 Sep 00:44:10 00:48:37 76° 75° (ENE) 00:53:05 437.250
AUBIESAT-1 26 Sep 00:44:57 00:49:05 67° 72° (ENE) 00:52:57 437.475
SPROUT 26 Sep 00:54:46 00:58:52 48° 73° (ENE) 01:02:58 437.525
JAS-2 26 Sep 00:54:47 01:02:02 39° 95° (E) 01:08:57 435.910
UNISAT 6 26 Sep 01:03:26 01:06:46 22° 292° (WNW) 01:10:08 437.425
UKube-1 26 Sep 01:03:56 01:08:11 56° 73° (ENE) 01:12:26 .
QB50P1 26 Sep 01:09:36 01:13:45 58° 100° (E) 01:17:54 145.935-145.965
DUCHIFAT 1 26 Sep 01:10:10 01:14:15 50° 100° (E) 01:18:20 145.980
ESTCUBE 1 26 Sep 01:19:45 01:23:22 23° 265° (W) 01:27:00 437.505/2401.250
M-CUBED/EXP-1 PRIME 26 Sep 01:20:28 01:24:25 36° 256° (WSW) 01:28:07 437.505
BUGSAT 1 26 Sep 01:22:48 01:26:12 26° 96° (E) 01:29:36 437.445
POPSAT HIP 1 26 Sep 01:22:51 01:27:04 83° 101° (E) 01:31:17 437.405
DX 1 26 Sep 01:27:58 01:32:17 57° 259° (W) 01:36:37 434.975-435.025
VELOX 1 26 Sep 01:28:27 01:32:34 36° 262° (W) 01:36:42 145.980
BEESAT 3 26 Sep 01:37:55 01:40:42 19° 111° (ESE) 01:43:30 437.485
CUBEBUG 1 26 Sep 01:39:41 01:43:05 22° 265° (W) 01:46:30 437.445
NANOSAT C BR1 26 Sep 01:40:55 01:45:04 62° 285° (WNW) 01:49:12 145.865
RS-15 26 Sep 01:54:14 02:02:07 19° 354° (N) 02:10:07 29.354- 29.394
QB50P2 26 Sep 02:02:27 02:06:10 31° 289° (WNW) 02:09:53 145.880/145.840
BEESAT 26 Sep 02:04:20 02:06:06 12° 62° (ENE) 02:07:52 436.000
POLYITAN 1 26 Sep 02:04:41 02:08:24 31° 289° (WNW) 02:12:06 437.675
Cosmos 2491 26 Sep 02:07:42 02:14:54 27° 69° (ENE) 02:22:00 435.465 / 435.565
SO-50 26 Sep 02:22:29 02:26:53 49° 244° (WSW) 02:31:10 436.795
TISAT 1 26 Sep 02:23:23 02:27:35 83° 258° (WSW) 02:31:48 437.305
BEESAT 2 26 Sep 02:27:43 02:31:17 34° 114° (ESE) 02:34:53 435.950
SPROUT 26 Sep 02:33:02 02:35:03 13° 268° (W) 02:37:03 437.525
ISS 26 Sep 02:34:18 02:34:42 10° 12° (NNE) 02:35:05 145.825
Oscar 19 26 Sep 02:38:35 02:43:19 36° 98° (E) 02:48:01 437.125/150
JAS-2 26 Sep 02:39:38 02:46:58 44° 293° (WNW) 02:54:04 435.910
SRMSAT 26 Sep 02:40:04 02:42:13 12° 181° (S) 02:44:22 437.500
UKube-1 26 Sep 02:43:07 02:44:32 11° 268° (W) 02:45:57 .
DUCHIFAT 1 26 Sep 02:47:35 02:49:29 13° 295° (WNW) 02:51:24 145.980
QB50P1 26 Sep 02:47:36 02:49:01 12° 296° (WNW) 02:50:26 145.935-145.965
BUGSAT 1 26 Sep 02:58:23 03:01:25 21° 291° (WNW) 03:04:28 437.445
YUBILEINY 26 Sep 03:07:10 03:14:05 27° 82° (E) 03:20:58 435.215
ITUPSAT 1 26 Sep 03:10:59 03:15:38 57° 73° (ENE) 03:20:19 437.325
BEESAT 3 26 Sep 03:14:35 03:18:06 32° 307° (NW) 03:21:41 437.485
Gurwin Techsat 1B 26 Sep 03:18:04 03:23:05 41° 98° (E) 03:28:04 435.225
SWISSCUBE 26 Sep 03:25:13 03:29:59 88° 254° (WSW) 03:34:47 437.505
ITAMSAT 1 26 Sep 03:28:43 03:31:00 13° 91° (E) 03:33:18 435.822/435.867
BEESAT 26 Sep 03:38:30 03:43:14 72° 258° (WSW) 03:48:01 436.000
MOZHAYETS 4 26 Sep 03:48:33 03:52:05 23° 68° (ENE) 03:55:37
Cosmos 2491 26 Sep 04:03:37 04:12:19 64° 268° (W) 04:20:57 435.465 / 435.565
BEESAT 2 26 Sep 04:06:11 04:09:10 20° 311° (NW) 04:12:12 435.950
ISS 26 Sep 04:09:01 04:12:00 31° 31° (NNE) 04:15:00 145.825
RS-15 26 Sep 04:10:43 04:20:49 28° 30° (NNE) 04:30:49 29.354- 29.394
AO-7 26 Sep 04:13:28 04:19:47 23° 94° (E) 04:26:02 29.400- 29.500
Oscar 19 26 Sep 04:18:15 04:22:27 25° 293° (WNW) 04:26:36 437.125/150
KKS-1 26 Sep 04:29:11 04:33:20 40° 71° (ENE) 04:37:30 437.445
AIST 2 26 Sep 04:31:21 04:34:42 25° 112° (ESE) 04:38:06 435.215
ITUPSAT 1 26 Sep 04:51:27 04:53:48 14° 268° (W) 04:56:09 437.325
Gurwin Techsat 1B 26 Sep 04:58:35 05:02:45 24° 294° (WNW) 05:06:56 435.225
YUBILEINY 26 Sep 05:01:31 05:10:12 61° 281° (W) 05:18:52 435.215
CUBESAT XI-V 26 Sep 05:02:42 05:05:55 19° 66° (ENE) 05:09:08 437.345
PCSat 26 Sep 05:02:53 05:07:24 27° 108° (ESE) 05:11:55 145.827
ITAMSAT 1 26 Sep 05:05:44 05:10:56 70° 286° (WNW) 05:16:07 435.822/435.867
STARS 26 Sep 05:08:44 05:12:59 51° 73° (ENE) 05:17:15 437.465
Cosmos 2504 26 Sep 05:21:13 05:28:43 76° 95° (E) 05:35:55 435.465 / 435.565
MOZHAYETS 4 26 Sep 05:24:57 05:29:02 32° 263° (W) 05:33:10
HORYU 2 26 Sep 05:43:54 05:45:37 12° 92° (E) 05:47:18 437.375
ISS 26 Sep 05:45:37 05:48:25 26° 227° (SW) 05:51:13 145.825
AO-7 26 Sep 06:04:53 06:13:07 70° 291° (WNW) 06:21:20 29.400- 29.500
KKS-1 26 Sep 06:07:06 06:10:02 17° 266° (W) 06:12:59 437.445
AIST 2 26 Sep 06:09:31 06:13:04 28° 309° (NW) 06:16:40 435.215
CUSAT 1 26 Sep 06:22:39 06:29:06 27° 66° (ENE) 06:34:49 437.405
RS-15 26 Sep 06:23:20 06:35:48 77° 57° (ENE) 06:47:55 29.354- 29.394
AO-85 26 Sep 06:24:13 06:26:38 15° 44° (NE) 06:28:58 145.980
AIST 1 26 Sep 06:30:39 06:35:01 74° 95° (E) 06:39:25
BRITE-PL 26 Sep 06:33:48 06:37:46 25° 93° (E) 06:41:28 437.365/2234.400
CUBESAT XI-V 26 Sep 06:38:29 06:42:56 43° 262° (W) 06:47:27 437.345
NOAA 15 26 Sep 06:42:10 06:45:04 15° 92° (E) 06:47:56 137.62
PCSat 26 Sep 06:45:33 06:50:35 39° 305° (NW) 06:55:40 145.827
STARS 26 Sep 06:47:37 06:49:36 13° 268° (W) 06:51:36 437.465
Cubesat XI-IV 26 Sep 06:50:43 06:53:35 14° 91° (E) 06:56:25 437.490
CUTE-I 26 Sep 06:51:27 06:54:26 15° 91° (E) 06:57:24 437.470
STRAND 1 26 Sep 06:52:40 06:55:14 14° 62° (ENE) 06:57:48 437.568
YUBILEINY 26 Sep 07:08:04 07:09:01 10° 303° (WNW) 07:09:57 435.215
NOAA 18 26 Sep 07:14:11 07:18:06 20° 94° (E) 07:22:00 137.9125
HORYU 2 26 Sep 07:18:06 07:22:28 57° 286° (WNW) 07:26:50 437.375
Cosmos 2504 26 Sep 07:18:09 07:22:48 17° 293° (WNW) 07:27:23 435.465 / 435.565
DANDE 26 Sep 07:31:37 07:39:30 43° 73° (ENE) 07:46:57 436.750
LilacSat-2 26 Sep 07:37:23 07:41:03 42° 99° (E) 07:44:42 437.200
AO-7 26 Sep 08:00:14 08:04:25 15° 311° (NW) 08:08:37 29.400- 29.500
AO-85 26 Sep 08:03:27 08:07:27 53° 243° (WSW) 08:11:13 145.980
CUSAT 1 26 Sep 08:04:02 08:11:38 58° 268° (W) 08:18:02 437.405
O/OREOS (USA 219) 26 Sep 08:10:09 08:14:20 38° 105° (ESE) 08:18:35 437.305
GOMX 1 26 Sep 08:11:23 08:15:48 68° 285° (WNW) 08:19:59 467.674
BRITE-PL 26 Sep 08:12:03 08:16:13 29° 292° (WNW) 08:20:08 437.365/2234.400
NOAA 15 26 Sep 08:20:00 08:25:14 63° 287° (WNW) 08:30:26 137.62
STRAND 1 26 Sep 08:28:43 08:33:47 69° 258° (WSW) 08:38:54 437.568
Cubesat XI-IV 26 Sep 08:28:45 08:34:03 65° 287° (WNW) 08:39:21 437.490
CUTE-I 26 Sep 08:29:35 08:34:52 63° 287° (WNW) 08:40:09 437.470
CINEMA 3 26 Sep 08:33:04 08:36:03 19° 94° (E) 08:39:04 145.822/145.860
RS-15 26 Sep 08:37:15 08:47:04 30° 258° (WSW) 08:56:43 29.354- 29.394
Cosmos 2499 26 Sep 08:41:41 08:45:43 16° 81° (E) 08:49:43 435.465 / 435.565
DOVE 4 26 Sep 08:42:57 08:47:10 74° 283° (WNW) 08:51:16 437.250
NOAA 18 26 Sep 08:53:43 08:59:00 50° 289° (WNW) 09:04:14 137.9125
PRISM 26 Sep 08:57:48 09:00:57 21° 68° (ENE) 09:04:05 437.425
COMPASS 1 26 Sep 09:05:11 09:07:35 15° 92° (E) 09:09:57 437.405
LilacSat-2 26 Sep 09:13:16 09:14:57 13° 294° (WNW) 09:16:38 437.200
HO-68 26 Sep 09:13:28 09:20:18 47° 100° (E) 09:27:06 435.675
DANDE 26 Sep 09:14:29 09:22:13 43° 271° (W) 09:29:32 436.750
CUTE 1.7 + AOD 2 26 Sep 09:23:19 09:27:33 53° 100° (E) 09:31:44 437.475
GONETS M04 26 Sep 09:23:37 09:31:57 49° 89° (E) 09:40:18
CANX-2 26 Sep 09:24:07 09:28:25 64° 101° (E) 09:32:40 2200.000
SEEDS 26 Sep 09:28:36 09:32:39 41° 98° (E) 09:36:40 437.485
O/OREOS (USA 219) 26 Sep 09:50:28 09:53:52 20° 302° (WNW) 09:57:18 437.305
CUBEBUG 2 26 Sep 09:53:05 09:57:07 40° 99° (E) 10:01:16 437.445
AAUSAT CUBESAT 2 26 Sep 09:56:54 10:00:58 46° 99° (E) 10:04:59 437.432
FUNcube-1 26 Sep 10:08:40 10:12:08 23° 95° (E) 10:15:39 145.935
CINEMA 3 26 Sep 10:09:34 10:13:15 31° 288° (WNW) 10:16:58 145.822/145.860
UWE-3 26 Sep 10:15:15 10:19:25 48° 99° (E) 10:23:41 435.000/436.395/437.385
UNISAT 6 26 Sep 10:24:14 10:27:37 23° 69° (ENE) 10:30:59 437.425
Cosmos 2499 26 Sep 10:30:44 10:37:57 75° 278° (W) 10:45:01 435.465 / 435.565
PRISM 26 Sep 10:32:24 10:36:03 29° 263° (W) 10:39:44 437.425
COMPASS 1 26 Sep 10:39:19 10:43:18 41° 287° (WNW) 10:47:15 437.405
BEESAT 2 26 Sep 10:47:34 10:50:03 16° 46° (NE) 10:52:30 435.950
ZACube-1 26 Sep 10:48:56 10:53:15 74° 101° (E) 10:57:39 437.345
Oscar 11 26 Sep 10:50:44 10:55:06 74° 101° (ESE) 10:59:27 145.826/435.025
ANTELSAT 26 Sep 10:58:46 11:02:58 57° 75° (ENE) 11:07:09 437.575/2403.000
CUTE 1.7 + AOD 2 26 Sep 11:00:56 11:02:54 13° 295° (WNW) 11:04:52 437.475
HO-68 26 Sep 11:01:36 11:07:45 33° 297° (WNW) 11:13:55 435.675
CANX-2 26 Sep 11:02:30 11:03:42 11° 296° (WNW) 11:04:53 2200.000
SEEDS 26 Sep 11:05:23 11:07:59 16° 294° (WNW) 11:10:34 437.485
JAS-2 26 Sep 11:08:13 11:11:27 14° 54° (NE) 11:14:49 435.910
QB50P2 26 Sep 11:19:42 11:21:39 13° 65° (ENE) 11:23:36 145.880/145.840
TIGRISAT 26 Sep 11:19:45 11:24:02 86° 253° (WSW) 11:28:18 435.000
GONETS M04 26 Sep 11:21:02 11:28:54 35° 288° (WNW) 11:36:52
POLYITAN 1 26 Sep 11:21:57 11:23:53 13° 65° (ENE) 11:25:50 437.675
HUMSAT D 26 Sep 11:26:14 11:30:08 34° 97° (E) 11:34:03 437.325/437.525
CUBEBUG 2 26 Sep 11:30:46 11:33:26 16° 293° (WNW) 11:36:08 437.445
BEESAT 3 26 Sep 11:32:28 11:36:28 86° 60° (ENE) 11:40:25 437.485
DELFI C3 26 Sep 11:33:10 11:37:13 88° 282° (WNW) 11:41:13 145.870
AAUSAT CUBESAT 2 26 Sep 11:33:48 11:36:02 14° 294° (WNW) 11:38:13 437.432
FUNcube-1 26 Sep 11:44:39 11:48:19 28° 290° (WNW) 11:52:04 145.935
UWE-3 26 Sep 11:53:10 11:55:30 14° 294° (WNW) 11:57:51 435.000/436.395/437.385
QB50P1 26 Sep 12:00:33 12:04:22 35° 71° (ENE) 12:08:12 145.935-145.965
UNISAT 6 26 Sep 12:00:34 12:04:12 27° 264° (W) 12:07:51 437.425
DUCHIFAT 1 26 Sep 12:00:40 12:04:19 30° 71° (ENE) 12:07:59 145.980
BUGSAT 1 26 Sep 12:11:53 12:14:27 16° 67° (ENE) 12:17:01 437.445
POPSAT HIP 1 26 Sep 12:13:37 12:17:40 48° 74° (ENE) 12:21:44 437.405
BEESAT 2 26 Sep 12:24:14 12:28:09 50° 243° (WSW) 12:32:01 435.950
PHONESAT 2.4 26 Sep 12:29:58 12:32:45 41° 156° (SSE) 12:35:34 2401.200-2431.200
NANOSAT C BR1 26 Sep 12:31:05 12:35:16 76° 77° (ENE) 12:39:28 145.865
Cosmos 2499 26 Sep 12:31:18 12:32:19 10° 298° (WNW) 12:33:21 435.465 / 435.565
AISAT 26 Sep 12:37:09 12:39:47 16° 93° (E) 12:42:25 437.250
ANTELSAT 26 Sep 12:39:00 12:40:00 11° 269° (W) 12:41:01 437.575/2403.000
JAS-2 26 Sep 12:48:50 12:55:06 80° 75° (ENE) 13:02:17 435.910
QB50P2 26 Sep 12:52:54 12:57:00 51° 260° (W) 13:01:06 145.880/145.840
AIST 2 26 Sep 12:54:30 12:56:40 14° 44° (NE) 12:58:49 435.215
POLYITAN 1 26 Sep 12:55:09 12:59:14 50° 260° (W) 13:03:19 437.675
UKube-1 26 Sep 12:55:52 12:56:08 10° 91° (E) 12:56:23 .
HUMSAT D 26 Sep 13:02:32 13:05:29 19° 292° (WNW) 13:08:28 437.325/437.525
M-CUBED/EXP-1 PRIME 26 Sep 13:02:46 13:03:42 11° 98° (E) 13:04:38 437.505
ESTCUBE 1 26 Sep 13:12:32 13:17:05 82° 102° (ESE) 13:21:36 437.505/2401.250
DX 1 26 Sep 13:18:00 13:21:39 26° 96° (E) 13:25:16 434.975-435.025
VELOX 1 26 Sep 13:19:39 13:23:53 44° 99° (E) 13:28:05 145.980
YUBILEINY 26 Sep 13:21:35 13:23:21 11° 58° (ENE) 13:25:07 435.215
CUBEBUG 1 26 Sep 13:28:28 13:32:50 78° 102° (ESE) 13:37:08 437.445
50 SAT 26 Sep 13:34:30 13:38:10 71° 101° (ESE) 13:41:49 437.505
DUCHIFAT 1 26 Sep 13:36:56 13:40:01 20° 265° (W) 13:43:07 145.980
QB50P1 26 Sep 13:37:24 13:40:13 17° 266° (W) 13:43:03 145.935-145.965
BUGSAT 1 26 Sep 13:45:42 13:49:31 37° 261° (W) 13:53:21 437.445
POPSAT HIP 1 26 Sep 13:51:55 13:53:42 12° 268° (W) 13:55:29 437.405
PCSat 26 Sep 13:52:08 13:55:55 19° 47° (NE) 13:59:41 145.827
Oscar 19 26 Sep 13:53:45 13:58:42 46° 71° (ENE) 14:03:39 437.125/150
AUBIESAT-1 26 Sep 13:59:17 14:02:33 56° 106° (ESE) 14:05:48 437.475
PHONESAT 2.4 26 Sep 14:05:55 14:08:51 61° 352° (N) 14:11:47 2401.200-2431.200
TISAT 1 26 Sep 14:09:52 14:12:30 16° 93° (E) 14:15:06 437.305
AISAT 26 Sep 14:12:17 14:16:26 42° 288° (WNW) 14:20:34 437.250
SPROUT 26 Sep 14:17:39 14:21:53 69° 284° (WNW) 14:26:06 437.525
UKube-1 26 Sep 14:28:16 14:32:33 62° 286° (WNW) 14:36:47 .
AIST 2 26 Sep 14:31:24 14:35:35 68° 241° (WSW) 14:39:44 435.215
M-CUBED/EXP-1 PRIME 26 Sep 14:35:27 14:38:23 31° 293° (WNW) 14:41:18 437.505
JAS-2 26 Sep 14:37:27 14:41:06 16° 274° (W) 14:44:58 435.910
Gurwin Techsat 1B 26 Sep 14:37:33 14:42:44 56° 72° (ENE) 14:47:55 435.225
ITAMSAT 1 26 Sep 14:44:52 14:48:21 18° 64° (ENE) 14:51:49 435.822/435.867
DX 1 26 Sep 14:54:11 14:57:44 25° 292° (WNW) 15:01:16 434.975-435.025
VELOX 1 26 Sep 14:57:18 14:59:58 16° 295° (WNW) 15:02:36 145.980
Cosmos 2491 26 Sep 15:07:19 15:14:43 32° 84° (E) 15:22:08 435.465 / 435.565
AO-7 26 Sep 15:10:59 15:17:56 31° 59° (ENE) 15:24:51 29.400- 29.500
YUBILEINY 26 Sep 15:13:27 15:22:06 64° 80° (E) 15:30:41 435.215
ITUPSAT 1 26 Sep 15:14:08 15:17:09 17° 93° (E) 15:20:10 437.325
Cosmos 2504 26 Sep 15:15:22 15:21:05 23° 70° (ENE) 15:27:01 435.465 / 435.565
SWISSCUBE 26 Sep 15:27:21 15:31:23 26° 96° (E) 15:35:23 437.505
PCSat 26 Sep 15:34:25 15:39:48 67° 246° (WSW) 15:45:10 145.827
Oscar 19 26 Sep 15:34:27 15:38:12 20° 267° (W) 15:41:58 437.125/150
BEESAT 26 Sep 15:40:20 15:44:37 32° 97° (E) 15:48:52 436.000
PHONESAT 2.4 26 Sep 15:42:12 15:45:09 64° 9° (N) 15:48:06 2401.200-2431.200
TISAT 1 26 Sep 15:44:25 15:48:15 36° 288° (WNW) 15:52:05 437.305
Gurwin Techsat 1B 26 Sep 16:19:43 16:23:00 17° 268° (W) 16:26:19 435.225
ITAMSAT 1 26 Sep 16:22:21 16:27:22 52° 260° (W) 16:32:26 435.822/435.867
SO-50 26 Sep 16:34:22 16:39:12 75° 119° (ESE) 16:44:01 436.795
AIST 1 26 Sep 16:40:33 16:43:06 15° 72° (ENE) 16:45:38
ITUPSAT 1 26 Sep 16:50:36 16:55:13 48° 288° (WNW) 16:59:49 437.325
AO-7 26 Sep 17:02:00 17:10:11 60° 257° (WSW) 17:18:23 29.400- 29.500
Cosmos 2491 26 Sep 17:02:35 17:11:04 53° 283° (WNW) 17:19:40 435.465 / 435.565
SWISSCUBE 26 Sep 17:04:56 17:09:07 30° 291° (WNW) 17:13:18 437.505
Cosmos 2504 26 Sep 17:07:34 17:14:53 62° 267° (W) 17:22:40 435.465 / 435.565
YUBILEINY 26 Sep 17:11:29 17:18:08 25° 278° (W) 17:24:47 435.215
BEESAT 26 Sep 17:18:20 17:22:14 25° 293° (WNW) 17:26:07 436.000
PHONESAT 2.4 26 Sep 17:18:27 17:21:14 37° 204° (SSW) 17:24:00 2401.200-2431.200
MOZHAYETS 4 26 Sep 17:20:42 17:25:20 64° 101° (E) 17:29:56
BRITE-PL 26 Sep 17:41:41 17:46:35 31° 69° (ENE) 17:51:25 437.365/2234.400
GOMX 1 26 Sep 17:42:04 17:44:27 13° 63° (ENE) 17:46:48 467.674
